This is the latest recevied weather packets stored in our database for station/object W4SNA-3. If no packets are shown the sender has not sent any weather packets the latest 10 day(s).
| Time | Temp. | Humidity | Pressure | Rain* | Wind** | Luminosity | Snow |
|---|---|---|---|---|---|---|---|
| 1777810223 | 4.44° C | 68% | 1015.1 hPa | 0 mm | - | - | - |
| 1777809924 | 3.89° C | 68% | 1015 hPa | 0 mm | - | - | - |
| 1777809626 | 3.89° C | 70% | 1014.9 hPa | 0 mm | - | - | - |
| 1777809323 | 3.33° C | 71% | 1014.8 hPa | 0 mm | - | - | - |
| 1777809023 | 3.33° C | 73% | 1014.8 hPa | 0 mm | - | - | - |
| 1777808645 | 2.78° C | 75% | 1014.8 hPa | 0 mm | - | - | - |
| 1777808344 | 2.22° C | 77% | 1014.7 hPa | 0 mm | - | - | - |
| 1777808044 | 1.67° C | 78% | 1014.7 hPa | 0 mm | - | - | - |
| 1777807744 | 1.11° C | 80% | 1014.7 hPa | 0 mm | - | - | - |
| 1777807416 | 1.11° C | 81% | 1014.5 hPa | 0 mm | - | - | - |
| 1777807127 | 0.56° C | 81% | 1014.4 hPa | 0 mm | - | - | - |
| 1777806814 | 0.56° C | 81% | 1014.2 hPa | 0 mm | - | - | - |
| 1777806514 | 0.56° C | 81% | 1014.2 hPa | 0 mm | - | - | - |
| 1777806214 | 0.56° C | 82% | 1014.2 hPa | 0 mm | - | - | - |
| 1777805916 | 0.56° C | 82% | 1014.2 hPa | 0 mm | - | - | - |
| 1777805614 | 0.56° C | 82% | 1014.1 hPa | 0 mm | - | - | - |
| 1777805314 | 0.56° C | 82% | 1014 hPa | 0 mm | - | - | - |
| 1777805015 | 0.56° C | 81% | 1014 hPa | 0 mm | - | - | - |
| 1777804714 | 0.56° C | 82% | 1014.1 hPa | 0 mm | - | - | - |
| 1777804421 | 0.56° C | 81% | 1013.9 hPa | 0 mm | - | - | - |
| 1777804114 | 0.56° C | 81% | 1013.8 hPa | 0 mm | - | - | - |
| 1777803741 | 0.56° C | 81% | 1013.6 hPa | 0 mm | - | - | - |
| 1777803441 | 0.56° C | 80% | 1013.5 hPa | 0 mm | - | - | - |
| 1777803143 | 1.11° C | 80% | 1013.3 hPa | 0 mm | - | - | - |
| 1777802841 | 1.11° C | 80% | 1013.2 hPa | 0 mm | - | - | - |
* Rain latest hour (hover to see other rain measurements)
** Current wind speed in m/s (hover to see current wind gust speed)